Darstellungsparameter: Aktuell verwendete Einstellungen:
Skalierung der Graphiken ... ?
xyx+y,   Skalierungsfaktor:      Skalierung: Modus: x, Faktor: 1
Darstellungszeitraum ... ?
Vom - - bis: - -   Zeitraum: 23.04.2016 - 22.04.2017
Min/Max/Avg-Anzeige ... ?
Zeige MMA aktuell
Zeige MMA Monat
Zeige MMA alles
Zeige --A aktuell
Zeige --A Monat
Zeige --A alles
Keine MMA-Anzeige
MMA:
Average (ber die Originaldaten)
MMA-Basis: 23.04.2016 - 22.04.2017
Quicknavigation für Darstellung... ?
Tage:      1T, 2T, 3T, 5T -1T -2T -3T -5T +1T +2T +3T +5T
Wochen: 1W, 2W, 3W -1W -2W -3W +1W +2W +3W
Monate: 1M, 3M, 6M -1M -3M -6M +1M +3M +6M
Jahre:    1J, 3J, 5J, 10J -1J -3J -5J -10J +1J +3J +5J +10J
Nutze für die Darstellung ... ?
Originaldaten oder ...
Mittelwerte Minima Maxima auf...
Stundenbasis Tagesbasis Wochenbasis
Monatsbasis Jahresbasis      Datenbasis: Mittelwerte auf Tagesbasis
Darstellen als:
Statistik (Auto) Statistik J:M      Darstellung:
Zur Graphik,    zurück zur Übersicht aller Sensoren.
 
Tabellarische Datenbersicht: ?
 
Sensor: Nr:Datum:Temp:Abs-Feuchte:Windchill:Wind:
Aussen-T/F 1 23-04-2016 00:00:00 7.88299 C 6.42 g/m*3 6.72 C 7.17014 km/h
2 24-04-2016 00:00:00 5.24444 C 5.42 g/m*3 3.81 C 6.62014 km/h
3 25-04-2016 00:00:00 4.71632 C 5.73 g/m*3 2.48 C 9.30625 km/h
4 26-04-2016 00:00:00 4.5934 C 5.49 g/m*3 2.37 C 9.12188 km/h
5 27-04-2016 00:00:00 5.57465 C 5.53 g/m*3 2.62 C 13.95313 km/h
6 28-04-2016 00:00:00 6.65 C 5.38 g/m*3 5.16 C 7.65451 km/h
7 29-04-2016 00:00:00 7.88056 C 5.67 g/m*3 7.28 C 5.22118 km/h
8 30-04-2016 00:00:00 7.70174 C 6.76 g/m*3 7.7 C 4.92257 km/h
9 01-05-2016 00:00:00 10.10486 C 7.71 g/m*3 9.02 C 8.56563 km/h
10 02-05-2016 00:00:00 12.06389 C 7.84 g/m*3 12.06 C 3.13125 km/h
11 03-05-2016 00:00:00 10.93785 C 7.55 g/m*3 10.54 C 6.03889 km/h
12 04-05-2016 00:00:00 9.10035 C 6.07 g/m*3 9.1 C 3.39722 km/h
13 05-05-2016 00:00:00 11.45347 C 6.94 g/m*3 11.45 C 5.61111 km/h
14 06-05-2016 00:00:00 15.34618 C 8.99 g/m*3 15.35 C 3.5191 km/h
15 07-05-2016 00:00:00 16.83542 C 9.35 g/m*3 16.84 C 3.77639 km/h
16 08-05-2016 00:00:00 18.59861 C 8.36 g/m*3 18.6 C 6.17118 km/h
17 09-05-2016 00:00:00 18.28715 C 9.64 g/m*3 18.29 C 4.85347 km/h
18 10-05-2016 00:00:00 17.08646 C 11.29 g/m*3 17.09 C 2.05694 km/h
19 11-05-2016 00:00:00 17.43438 C 11.28 g/m*3 17.43 C 3.74167 km/h
20 12-05-2016 00:00:00 17.84271 C 10.63 g/m*3 17.84 C 3.61076 km/h
21 13-05-2016 00:00:00 14.31736 C 11.02 g/m*3 14.32 C 1.31528 km/h
22 14-05-2016 00:00:00 10.45972 C 6.96 g/m*3 9.24 C 9.66181 km/h
23 15-05-2016 00:00:00 9.07743 C 6.2 g/m*3 7.84 C 8.38542 km/h
24 16-05-2016 00:00:00 9.98819 C 6.62 g/m*3 9.74 C 5.00868 km/h
25 17-05-2016 00:00:00 12.31563 C 7.5 g/m*3 12.32 C 4.92674 km/h
Sensor: Nr:Datum:Temp:Abs-Feuchte:Windchill:Wind:
Aussen-T/F 26 18-05-2016 00:00:00 14.47535 C 9.2 g/m*3 14.48 C 2.50486 km/h
27 19-05-2016 00:00:00 14.04722 C 9.15 g/m*3 14.05 C 3.41319 km/h
28 20-05-2016 00:00:00 14.08125 C 9.66 g/m*3 14.08 C 6.56632 km/h
29 21-05-2016 00:00:00 17.67708 C 11.23 g/m*3 17.68 C 3.4191 km/h
30 22-05-2016 00:00:00 18.70312 C 11.68 g/m*3 18.7 C 4.71528 km/h
31 23-05-2016 00:00:00 14.01632 C 10.05 g/m*3 14.02 C 8.33854 km/h
32 24-05-2016 00:00:00 10.97431 C 9.13 g/m*3 10.54 C 6.22292 km/h
33 25-05-2016 00:00:00 12.7125 C 9.75 g/m*3 12.71 C 1.23403 km/h
34 26-05-2016 00:00:00 14.89826 C 10.33 g/m*3 14.9 C 2.10938 km/h
35 27-05-2016 00:00:00 16.77849 C 12.94 g/m*3 16.78 C 2.11235 km/h
36 28-05-2016 00:00:00 18.08383 C 13.72 g/m*3 18.08 C 1.43892 km/h
37 29-05-2016 00:00:00 17.36528 C 13.25 g/m*3 17.37 C 1.68576 km/h
38 30-05-2016 00:00:00 17.49722 C 13.9 g/m*3 17.5 C 3.48194 km/h
39 31-05-2016 00:00:00 16.51458 C 12.3 g/m*3 16.51 C 2.34271 km/h
40 01-06-2016 00:00:00 15.69931 C 12.67 g/m*3 15.7 C 1.12917 km/h
41 02-06-2016 00:00:00 17.51979 C 13.73 g/m*3 17.52 C 1.64792 km/h
42 03-06-2016 00:00:00 16.76875 C 13.51 g/m*3 16.77 C 0.8066 km/h
43 04-06-2016 00:00:00 17.85104 C 13.83 g/m*3 17.85 C 1.83611 km/h
44 05-06-2016 00:00:00 19.18611 C 14.67 g/m*3 19.19 C 2.33264 km/h
45 06-06-2016 00:00:00 19.18785 C 14.33 g/m*3 19.19 C 1.64375 km/h
46 07-06-2016 00:00:00 19.88403 C 14.1 g/m*3 19.88 C 1.38819 km/h
47 08-06-2016 00:00:00 19.56354 C 13.01 g/m*3 19.56 C 5.36771 km/h
48 09-06-2016 00:00:00 17.3191 C 10.55 g/m*3 17.32 C 7.32188 km/h
49 10-06-2016 00:00:00 16.15521 C 9.83 g/m*3 16.16 C 3.07674 km/h
50 11-06-2016 00:00:00 17.56701 C 11.15 g/m*3 17.57 C 1.75139 km/h
Sensor: Nr:Datum:Temp:Abs-Feuchte:Windchill:Wind:
Aussen-T/F 51 12-06-2016 00:00:00 17.18299 C 12.73 g/m*3 17.18 C 2.86944 km/h
52 13-06-2016 00:00:00 15.94479 C 12.88 g/m*3 15.94 C 2.57049 km/h
53 14-06-2016 00:00:00 16.36597 C 12.24 g/m*3 16.37 C 4.14965 km/h
54 15-06-2016 00:00:00 15.42431 C 11.44 g/m*3 15.42 C 2.73958 km/h
55 16-06-2016 00:00:00 13.77292 C 11.13 g/m*3 13.77 C 1.25069 km/h
56 17-06-2016 00:00:00 14.68889 C 11.42 g/m*3 14.69 C 4.26632 km/h
57 18-06-2016 00:00:00 14.84861 C 11.11 g/m*3 14.85 C 5.13299 km/h
58 19-06-2016 00:00:00 15.40278 C 9.98 g/m*3 15.4 C 5.27639 km/h
59 20-06-2016 00:00:00 14.61979 C 10.26 g/m*3 14.62 C 4.06076 km/h
60 21-06-2016 00:00:00 18.21736 C 13.77 g/m*3 18.22 C 4.22604 km/h
61 22-06-2016 00:00:00 20.84792 C 15.95 g/m*3 20.85 C 1.36458 km/h
62 23-06-2016 00:00:00 23.76528 C 17.5 g/m*3 23.77 C 2.17743 km/h
63 24-06-2016 00:00:00 22.11979 C 17.68 g/m*3 22.12 C 1.67535 km/h
64 25-06-2016 00:00:00 16.85451 C 13.76 g/m*3 16.85 C 2.71215 km/h
65 26-06-2016 00:00:00 15.41562 C 11.23 g/m*3 15.42 C 5.33646 km/h
66 27-06-2016 00:00:00 15.91562 C 11.76 g/m*3 15.92 C 6.02951 km/h
67 28-06-2016 00:00:00 18.26597 C 13.16 g/m*3 18.27 C 2.94618 km/h
68 29-06-2016 00:00:00 19.04444 C 12.18 g/m*3 19.04 C 5.90799 km/h
69 30-06-2016 00:00:00 18.7566 C 12.98 g/m*3 18.76 C 4.27639 km/h
70 01-07-2016 00:00:00 19.88194 C 13.91 g/m*3 19.88 C 5.11597 km/h
71 02-07-2016 00:00:00 16.90868 C 11.32 g/m*3 16.91 C 5.75972 km/h
72 03-07-2016 00:00:00 15.21559 C 10.85 g/m*3 15.22 C 3.62129 km/h
73 04-07-2016 00:00:00 17.43333 C 12.31 g/m*3 17.43 C 2.40035 km/h
74 05-07-2016 00:00:00 19.40903 C 13.05 g/m*3 19.41 C 6.85694 km/h
75 06-07-2016 00:00:00 16.61042 C 10.46 g/m*3 16.61 C 3.5809 km/h
Sensor: Nr:Datum:Temp:Abs-Feuchte:Windchill:Wind:
Aussen-T/F 76 07-07-2016 00:00:00 17.08576 C 11.33 g/m*3 17.09 C 1.45799 km/h
77 08-07-2016 00:00:00 18.87222 C 13.06 g/m*3 18.87 C 2.11215 km/h
78 09-07-2016 00:00:00 21.08889 C 14.05 g/m*3 21.09 C 2.50556 km/h
79 10-07-2016 00:00:00 21.92535 C 15.31 g/m*3 21.93 C 2.22326 km/h
80 11-07-2016 00:00:00 21.61701 C 14 g/m*3 21.62 C 5.9316 km/h
81 12-07-2016 00:00:00 19.06354 C 12.22 g/m*3 19.06 C 4.50729 km/h
82 13-07-2016 00:00:00 14.71319 C 11.51 g/m*3 14.71 C 1.97951 km/h
83 14-07-2016 00:00:00 14.94583 C 10.15 g/m*3 14.95 C 5.28056 km/h
84 15-07-2016 00:00:00 16.08229 C 10.14 g/m*3 16.08 C 4.43993 km/h
85 16-07-2016 00:00:00 16.98542 C 12.01 g/m*3 16.99 C 1.86806 km/h
86 17-07-2016 00:00:00 21.34757 C 15.03 g/m*3 21.35 C 3.00486 km/h
87 18-07-2016 00:00:00 21.85069 C 14.51 g/m*3 21.85 C 2.12431 km/h
88 19-07-2016 00:00:00 21.61667 C 14.84 g/m*3 21.62 C 0.9684 km/h
89 20-07-2016 00:00:00 23.34097 C 15.69 g/m*3 23.34 C 1.97986 km/h
90 21-07-2016 00:00:00 21.23924 C 16.1 g/m*3 21.24 C 2.89375 km/h
91 22-07-2016 00:00:00 20.96806 C 16.23 g/m*3 20.97 C 1.53993 km/h
92 23-07-2016 00:00:00 20.3434 C 16.14 g/m*3 20.34 C 1.57465 km/h
93 24-07-2016 00:00:00 22.0941 C 16.68 g/m*3 22.09 C 2.27569 km/h
94 25-07-2016 00:00:00 21.8191 C 15.69 g/m*3 21.82 C 2.61076 km/h
95 26-07-2016 00:00:00 20.20208 C 15.1 g/m*3 20.2 C 2.69201 km/h
96 27-07-2016 00:00:00 19.62986 C 13.7 g/m*3 19.63 C 3.30104 km/h
97 28-07-2016 00:00:00 20.20174 C 14.48 g/m*3 20.2 C 2.89757 km/h
98 29-07-2016 00:00:00 19.81042 C 14.55 g/m*3 19.81 C 3.70729 km/h
99 30-07-2016 00:00:00 20.55278 C 14.05 g/m*3 20.55 C 2.95729 km/h
100 31-07-2016 00:00:00 18.14444 C 12.51 g/m*3 18.14 C 4.30451 km/h
Sensor: Nr:Datum:Temp:Abs-Feuchte:Windchill:Wind:
Aussen-T/F 101 01-08-2016 00:00:00 16.63958 C 11.11 g/m*3 16.64 C 1.70278 km/h
102 02-08-2016 00:00:00 16.16875 C 12.7 g/m*3 16.17 C 4.31354 km/h
103 03-08-2016 00:00:00 18.55174 C 14.93 g/m*3 18.55 C 6.0625 km/h
104 04-08-2016 00:00:00 18.01667 C 14.56 g/m*3 18.02 C 0.58958 km/h
105 05-08-2016 00:00:00 16.58403 C 12.5 g/m*3 16.58 C 2.53715 km/h
106 06-08-2016 00:00:00 17.59097 C 12.95 g/m*3 17.59 C 1.78924 km/h
107 07-08-2016 00:00:00 18.92153 C 13.21 g/m*3 18.92 C 2.58958 km/h
108 08-08-2016 00:00:00 19.25521 C 12.85 g/m*3 19.26 C 5.84826 km/h
109 09-08-2016 00:00:00 16.42986 C 10.1 g/m*3 16.43 C 4.77396 km/h
110 10-08-2016 00:00:00 13.02465 C 9.09 g/m*3 13.02 C 4.35625 km/h
111 11-08-2016 00:00:00 12.3 C 9.07 g/m*3 12.3 C 5.73854 km/h
112 12-08-2016 00:00:00 17.31701 C 13.39 g/m*3 17.32 C 4.90347 km/h
113 13-08-2016 00:00:00 20.62604 C 14.05 g/m*3 20.63 C 3.9 km/h
114 14-08-2016 00:00:00 19.08924 C 13.19 g/m*3 19.09 C 2.6816 km/h
115 15-08-2016 00:00:00 18.95451 C 12.68 g/m*3 18.95 C 3.03299 km/h
116 16-08-2016 00:00:00 18.07778 C 11.6 g/m*3 18.08 C 2.27361 km/h
117 17-08-2016 00:00:00 18.14653 C 11.37 g/m*3 18.15 C 2.66528 km/h
118 18-08-2016 00:00:00 17.22743 C 12.05 g/m*3 17.23 C 0.74688 km/h
119 19-08-2016 00:00:00 19.36181 C 13.9 g/m*3 19.36 C 2.4625 km/h
120 20-08-2016 00:00:00 18.84757 C 13.43 g/m*3 18.85 C 2.42188 km/h
121 21-08-2016 00:00:00 17.07361 C 11.68 g/m*3 17.07 C 7.83993 km/h
122 22-08-2016 00:00:00 17.30799 C 12.39 g/m*3 17.31 C 3.70174 km/h
123 23-08-2016 00:00:00 19.09167 C 12.74 g/m*3 19.09 C 1.35799 km/h
124 24-08-2016 00:00:00 20.54583 C 13.8 g/m*3 20.55 C 1.6559 km/h
125 25-08-2016 00:00:00 21.59896 C 14.45 g/m*3 21.6 C 1.6125 km/h
Sensor: Nr:Datum:Temp:Abs-Feuchte:Windchill:Wind:
Aussen-T/F 126 26-08-2016 00:00:00 22.53715 C 15.38 g/m*3 22.54 C 0.78472 km/h
127 27-08-2016 00:00:00 23.96528 C 17.1 g/m*3 23.97 C 0.79618 km/h
128 28-08-2016 00:00:00 23.4684 C 15.21 g/m*3 23.47 C 5.46597 km/h
129 29-08-2016 00:00:00 18.98993 C 12.9 g/m*3 18.99 C 3.00486 km/h
130 30-08-2016 00:00:00 18.11736 C 11.72 g/m*3 18.12 C 2.57639 km/h
131 31-08-2016 00:00:00 17.84514 C 11.8 g/m*3 17.85 C 0.65625 km/h
132 01-09-2016 00:00:00 19.62431 C 12.79 g/m*3 19.62 C 2.53993 km/h
133 02-09-2016 00:00:00 18.78785 C 12.67 g/m*3 18.79 C 1.46806 km/h
134 03-09-2016 00:00:00 20.71944 C 13.27 g/m*3 20.72 C 2.49201 km/h
135 04-09-2016 00:00:00 18.18681 C 12.69 g/m*3 18.19 C 7.97361 km/h
136 05-09-2016 00:00:00 17.73715 C 11.99 g/m*3 17.74 C 4.46667 km/h
137 06-09-2016 00:00:00 16.62882 C 11.62 g/m*3 16.63 C 1.43576 km/h
138 07-09-2016 00:00:00 17.39792 C 11.9 g/m*3 17.4 C 1.70382 km/h
139 08-09-2016 00:00:00 19.44722 C 13.34 g/m*3 19.45 C 2.21597 km/h
140 09-09-2016 00:00:00 20.12222 C 12.28 g/m*3 20.12 C 2.89306 km/h
141 10-09-2016 00:00:00 19.21944 C 13.38 g/m*3 19.22 C 0.42222 km/h
142 11-09-2016 00:00:00 18.8684 C 12.37 g/m*3 18.87 C 1.37778 km/h
143 12-09-2016 00:00:00 19.58437 C 13.34 g/m*3 19.58 C 1.25278 km/h
144 13-09-2016 00:00:00 21.20937 C 14.42 g/m*3 21.21 C 1.18785 km/h
145 14-09-2016 00:00:00 20.91319 C 13.56 g/m*3 20.91 C 1.53472 km/h
146 15-09-2016 00:00:00 20.02847 C 13.21 g/m*3 20.03 C 4.13264 km/h
147 16-09-2016 00:00:00 17.33889 C 12.64 g/m*3 17.34 C 2.82431 km/h
148 17-09-2016 00:00:00 15.96146 C 11.56 g/m*3 15.96 C 2.91424 km/h
149 18-09-2016 00:00:00 17.13993 C 13.13 g/m*3 17.14 C 4.16354 km/h
150 19-09-2016 00:00:00 15.49201 C 11.16 g/m*3 15.49 C 2.20799 km/h
Sensor: Nr:Datum:Temp:Abs-Feuchte:Windchill:Wind:
Aussen-T/F 151 20-09-2016 00:00:00 14.8184 C 11.22 g/m*3 14.82 C 0.8 km/h
152 21-09-2016 00:00:00 13.86563 C 9.39 g/m*3 13.87 C 1.70347 km/h
153 22-09-2016 00:00:00 11.70625 C 8.86 g/m*3 11.71 C 0.63576 km/h
154 23-09-2016 00:00:00 13.62518 C 10.21 g/m*3 13.63 C 0.01702 km/h
155 24-09-2016 00:00:00 13.82326 C 10.17 g/m*3 13.82 C 0.84097 km/h
156 25-09-2016 00:00:00 14.39201 C 10.56 g/m*3 14.39 C 1.67674 km/h
157 26-09-2016 00:00:00 14.99062 C 11.03 g/m*3 14.99 C 0.40139 km/h
158 27-09-2016 00:00:00 13.42847 C 10.86 g/m*3 13.43 C 0.12222 km/h
159 28-09-2016 00:00:00 15.2816 C 11.17 g/m*3 15.28 C 4.6566 km/h
160 29-09-2016 00:00:00 18.69375 C 12.7 g/m*3 18.69 C 5.92396 km/h
161 30-09-2016 00:00:00 15.12813 C 11.51 g/m*3 15.13 C 1.18021 km/h
162 01-10-2016 00:00:00 13.55804 C 11.23 g/m*3 13.56 C 0.52587 km/h
163 02-10-2016 00:00:00 12.49271 C 9.82 g/m*3 12.49 C 6.24479 km/h
164 03-10-2016 00:00:00 12.49236 C 10.15 g/m*3 12.49 C 2.64826 km/h
165 04-10-2016 00:00:00 10.89931 C 9.33 g/m*3 10.9 C 0.37222 km/h
166 05-10-2016 00:00:00 8.62465 C 7.17 g/m*3 8.62 C 3.4184 km/h
167 06-10-2016 00:00:00 7.98125 C 7.3 g/m*3 7.98 C 1.63958 km/h
168 07-10-2016 00:00:00 10.85069 C 9.27 g/m*3 10.85 C 0.34444 km/h
169 08-10-2016 00:00:00 9.28854 C 8.45 g/m*3 9.29 C 0.40625 km/h
170 09-10-2016 00:00:00 8.50868 C 7.85 g/m*3 8.51 C 0.21146 km/h
171 10-10-2016 00:00:00 6.46875 C 6.95 g/m*3 6.47 C 0.38889 km/h
172 11-10-2016 00:00:00 7.98993 C 7.51 g/m*3 7.99 C 1.21667 km/h
173 12-10-2016 00:00:00 8.69201 C 7.83 g/m*3 8.69 C 0.93507 km/h
174 13-10-2016 00:00:00 7.54583 C 7.04 g/m*3 7.55 C 2.58194 km/h
175 14-10-2016 00:00:00 9.31042 C 7.89 g/m*3 9.31 C 1.58194 km/h
Sensor: Nr:Datum:Temp:Abs-Feuchte:Windchill:Wind:
Aussen-T/F 176 15-10-2016 00:00:00 11.21667 C 9.22 g/m*3 11.22 C 2.99965 km/h
177 16-10-2016 00:00:00 8.72222 C 8.26 g/m*3 8.72 C 0.40556 km/h
178 17-10-2016 00:00:00 10.64132 C 9.45 g/m*3 10.64 C 0.17778 km/h
179 18-10-2016 00:00:00 11.33924 C 9.45 g/m*3 11.34 C 3.02188 km/h
180 19-10-2016 00:00:00 9.26389 C 7.99 g/m*3 8.32 C 7.18681 km/h
181 20-10-2016 00:00:00 8.03368 C 7.95 g/m*3 8.03 C 1.24826 km/h
182 21-10-2016 00:00:00 7.65845 C 7.76 g/m*3 7.66 C 1.02511 km/h
183 22-10-2016 00:00:00 7.80729 C 7.84 g/m*3 7.81 C 2.44306 km/h
184 23-10-2016 00:00:00 6.84236 C 7.31 g/m*3 6.84 C 1.7 km/h
185 24-10-2016 00:00:00 9.37778 C 8.76 g/m*3 9.38 C 0.28333 km/h
186 25-10-2016 00:00:00 11.21424 C 9.72 g/m*3 11.21 C 1.01875 km/h
187 26-10-2016 00:00:00 9.47049 C 8.55 g/m*3 9.47 C 0.85243 km/h
188 27-10-2016 00:00:00 8.9309 C 8.37 g/m*3 8.93 C 1.37604 km/h
189 28-10-2016 00:00:00 11.35833 C 9.38 g/m*3 11.36 C 4.07743 km/h
190 29-10-2016 00:00:00 11.58854 C 9.4 g/m*3 11.59 C 2.28542 km/h
191 30-10-2016 00:00:00 7.61215 C 7.73 g/m*3 7.61 C 0.49444 km/h
192 31-10-2016 00:00:00 7.10417 C 7.49 g/m*3 7.1 C 0.10556 km/h
193 01-11-2016 00:00:00 6.92431 C 7.48 g/m*3 6.92 C 0.89063 km/h
194 02-11-2016 00:00:00 7.39618 C 7.29 g/m*3 7.4 C 3.47292 km/h
195 03-11-2016 00:00:00 6.31493 C 6.81 g/m*3 6.31 C 2.9 km/h
196 04-11-2016 00:00:00 4.72674 C 6.33 g/m*3 4.73 C 0.3 km/h
197 05-11-2016 00:00:00 6.88299 C 7.44 g/m*3 6.88 C 0.87257 km/h
198 06-11-2016 00:00:00 5.54201 C 6.31 g/m*3 4.31 C 6.11597 km/h
199 07-11-2016 00:00:00 4.69097 C 6.23 g/m*3 4.69 C 3.11146 km/h
200 08-11-2016 00:00:00 3.20521 C 5.57 g/m*3 3.21 C 2.39514 km/h
Sensor: Nr:Datum:Temp:Abs-Feuchte:Windchill:Wind:
Aussen-T/F 201 09-11-2016 00:00:00 3.69722 C 5.89 g/m*3 3.7 C 2.31771 km/h
202 10-11-2016 00:00:00 5.22847 C 6.54 g/m*3 5.23 C 2.58542 km/h
203 11-11-2016 00:00:00 5.08785 C 6.58 g/m*3 5.09 C 2.63056 km/h
204 12-11-2016 00:00:00 2.06181 C 5.19 g/m*3 2.06 C 1.9184 km/h
205 13-11-2016 00:00:00 2.12049 C 5.13 g/m*3 2.12 C 2.10451 km/h
206 14-11-2016 00:00:00 -0.38611 C 4.39 g/m*3 -0.39 C 1.52813 km/h
207 15-11-2016 00:00:00 4.75208 C 6.22 g/m*3 3.27 C 6.53194 km/h
208 16-11-2016 00:00:00 9.88715 C 8.93 g/m*3 8.75 C 8.59306 km/h
209 17-11-2016 00:00:00 10.99757 C 8.95 g/m*3 9.88 C 9.64896 km/h
210 18-11-2016 00:00:00 9.44792 C 7.77 g/m*3 7.84 C 10.76076 km/h
211 19-11-2016 00:00:00 5.51319 C 6.16 g/m*3 5.51 C 3.72778 km/h
212 20-11-2016 00:00:00 9.3559 C 7.32 g/m*3 8.14 C 8.54931 km/h
213 21-11-2016 00:00:00 10.27813 C 8.8 g/m*3 10.28 C 2.57014 km/h
214 22-11-2016 00:00:00 10.22222 C 8.94 g/m*3 10.22 C 1.64514 km/h
215 23-11-2016 00:00:00 8.56389 C 8.32 g/m*3 8.56 C 0.12222 km/h
216 24-11-2016 00:00:00 8.79306 C 8.23 g/m*3 8.79 C 1.57917 km/h
217 25-11-2016 00:00:00 7.72222 C 6.93 g/m*3 7.14 C 5.09792 km/h
218 26-11-2016 00:00:00 6.87708 C 6.79 g/m*3 6.88 C 0.27778 km/h
219 27-11-2016 00:00:00 5.11215 C 6.36 g/m*3 5.11 C 1.85521 km/h
220 28-11-2016 00:00:00 -0.13333 C 4.49 g/m*3 -0.13 C 1.78438 km/h
221 29-11-2016 00:00:00 -2.74097 C 3.64 g/m*3 -2.74 C 1.72222 km/h
222 30-11-2016 00:00:00 -2.71076 C 3.69 g/m*3 -2.71 C 1.01771 km/h
223 01-12-2016 00:00:00 3.3875 C 5.16 g/m*3 0.78 C 9.80556 km/h
224 02-12-2016 00:00:00 5.17361 C 6.45 g/m*3 5.17 C 2.76354 km/h
225 03-12-2016 00:00:00 -0.32882 C 4.59 g/m*3 -0.33 C 2.02917 km/h
Sensor: Nr:Datum:Temp:Abs-Feuchte:Windchill:Wind:
Aussen-T/F 226 04-12-2016 00:00:00 -2.61215 C 3.88 g/m*3 -2.61 C 1.47292 km/h
227 05-12-2016 00:00:00 -3.83507 C 3.53 g/m*3 -3.84 C 0.65 km/h
228 06-12-2016 00:00:00 -3.15903 C 3.71 g/m*3 -3.16 C 0.57778 km/h
229 07-12-2016 00:00:00 -0.29965 C 4.56 g/m*3 -0.3 C 0.27222 km/h
230 08-12-2016 00:00:00 1.07778 C 4.95 g/m*3 1.08 C 2.55556 km/h
231 09-12-2016 00:00:00 6.58819 C 6.37 g/m*3 5.15 C 7.38924 km/h
232 10-12-2016 00:00:00 5.04201 C 6.25 g/m*3 5.04 C 4.33819 km/h
233 11-12-2016 00:00:00 8.10174 C 7.12 g/m*3 6.39 C 9.87257 km/h
234 12-12-2016 00:00:00 6.76563 C 7.1 g/m*3 6.77 C 1.32951 km/h
235 13-12-2016 00:00:00 4.10868 C 6.17 g/m*3 4.11 C 1.04167 km/h
236 14-12-2016 00:00:00 6.42569 C 7.15 g/m*3 6.43 C 0.89549 km/h
237 15-12-2016 00:00:00 6.89583 C 7.26 g/m*3 6.9 C 0.63333 km/h
238 16-12-2016 00:00:00 4.60451 C 5.84 g/m*3 4.6 C 2.72708 km/h
239 17-12-2016 00:00:00 3.86806 C 5.78 g/m*3 3.87 C 0.55556 km/h
240 18-12-2016 00:00:00 5.3059 C 6.54 g/m*3 5.31 C 0.92257 km/h
241 19-12-2016 00:00:00 4.3816 C 5.83 g/m*3 4.38 C 2.62361 km/h
242 20-12-2016 00:00:00 1.0875 C 4.79 g/m*3 1.09 C 2 km/h
243 21-12-2016 00:00:00 2.26076 C 5.2 g/m*3 2.26 C 1.12882 km/h
244 22-12-2016 00:00:00 3.84896 C 5.9 g/m*3 3.85 C 0.97778 km/h
245 23-12-2016 00:00:00 4.14757 C 6.13 g/m*3 4.15 C 2.37257 km/h
246 24-12-2016 00:00:00 7.17188 C 6.79 g/m*3 4.93 C 11.77674 km/h
247 25-12-2016 00:00:00 8.5434 C 7.64 g/m*3 6.34 C 13.35556 km/h
248 26-12-2016 00:00:00 7.71215 C 7.16 g/m*3 5.85 C 10.23472 km/h
249 27-12-2016 00:00:00 4.30139 C 5.76 g/m*3 3.07 C 5.57049 km/h
250 28-12-2016 00:00:00 3.53819 C 5.55 g/m*3 3.54 C 2.41285 km/h
Sensor: Nr:Datum:Temp:Abs-Feuchte:Windchill:Wind:
Aussen-T/F 251 29-12-2016 00:00:00 -1.78438 C 4.12 g/m*3 -1.78 C 0.58333 km/h
252 30-12-2016 00:00:00 -2.37014 C 3.96 g/m*3 -2.37 C 1.05556 km/h
253 31-12-2016 00:00:00 -4.09028 C 3.48 g/m*3 -4.09 C 0.72778 km/h
254 01-01-2017 00:00:00 -2.24792 C 3.95 g/m*3 -2.25 C 2.81215 km/h
255 02-01-2017 00:00:00 0.68021 C 4.79 g/m*3 0.68 C 3.95104 km/h
256 03-01-2017 00:00:00 1.83819 C 5.03 g/m*3 -0.49 C 7.71944 km/h
257 04-01-2017 00:00:00 3.52049 C 5.54 g/m*3 0.53 C 11.65833 km/h
258 05-01-2017 00:00:00 0.04687 C 4.05 g/m*3 -1.72 C 5.40972 km/h
259 06-01-2017 00:00:00 -6.48125 C 2.76 g/m*3 -6.48 C 0.60556 km/h
260 07-01-2017 00:00:00 -4.20694 C 3.13 g/m*3 -6.65 C 5.55451 km/h
261 08-01-2017 00:00:00 0.59306 C 4.82 g/m*3 0.59 C 2.67083 km/h
262 09-01-2017 00:00:00 2.15 C 5.27 g/m*3 2.15 C 1.83993 km/h
263 10-01-2017 00:00:00 1.40799 C 5.1 g/m*3 1.41 C 0.23333 km/h
264 11-01-2017 00:00:00 3.72639 C 5.84 g/m*3 1.63 C 8.02813 km/h
265 12-01-2017 00:00:00 4.3066 C 5.73 g/m*3 2.24 C 8.29132 km/h
266 13-01-2017 00:00:00 2.18576 C 5.14 g/m*3 -1.67 C 14.73368 km/h
267 14-01-2017 00:00:00 2.66806 C 4.96 g/m*3 -0.12 C 9.9816 km/h
268 15-01-2017 00:00:00 0.83819 C 4.73 g/m*3 0.84 C 1.20069 km/h
269 16-01-2017 00:00:00 -1.62361 C 4.05 g/m*3 -1.62 C 0.86667 km/h
270 17-01-2017 00:00:00 -3.91493 C 3.36 g/m*3 -3.91 C 1.46285 km/h
271 18-01-2017 00:00:00 -5.21877 C 3.07 g/m*3 -5.22 C 1.67471 km/h
272 19-01-2017 00:00:00 -5.96794 C 2.92 g/m*3 -5.97 C 1.25802 km/h
273 20-01-2017 00:00:00 -6.17471 C 2.84 g/m*3 -6.17 C 1.22023 km/h
274 21-01-2017 00:00:00 -5.50363 C 3.02 g/m*3 -5.5 C 1.26452 km/h
275 22-01-2017 00:00:00 -7.2046 C 2.69 g/m*3 -7.2 C 0.9318 km/h
Sensor: Nr:Datum:Temp:Abs-Feuchte:Windchill:Wind:
Aussen-T/F 276 23-01-2017 00:00:00 -5.41458 C 3.07 g/m*3 -5.41 C 0.55625 km/h
277 24-01-2017 00:00:00 -0.75035 C 4.2 g/m*3 -0.75 C 0.60729 km/h
278 25-01-2017 00:00:00 -1.16701 C 3.74 g/m*3 -1.17 C 3.44931 km/h
279 26-01-2017 00:00:00 -1.71667 C 3.63 g/m*3 -1.72 C 2.76701 km/h
280 27-01-2017 00:00:00 -3.44306 C 3.43 g/m*3 -3.44 C 0.26111 km/h
281 28-01-2017 00:00:00 -1.90347 C 3.85 g/m*3 -1.9 C 0.22778 km/h
282 29-01-2017 00:00:00 2.8691 C 5.42 g/m*3 2.87 C 1.29583 km/h
283 30-01-2017 00:00:00 4.73507 C 6.32 g/m*3 4.74 C 3.91042 km/h
284 31-01-2017 00:00:00 3.29583 C 5.55 g/m*3 3.3 C 2.54618 km/h
285 01-02-2017 00:00:00 3.48611 C 5.41 g/m*3 3.49 C 2.18958 km/h
286 02-02-2017 00:00:00 5.1434 C 6.48 g/m*3 5.14 C 1.2 km/h
287 03-02-2017 00:00:00 5.66007 C 6.69 g/m*3 5.66 C 2.19514 km/h
288 04-02-2017 00:00:00 6.00556 C 6.53 g/m*3 6.01 C 4.48681 km/h
289 05-02-2017 00:00:00 4.83993 C 6.13 g/m*3 4.84 C 3.12986 km/h
290 06-02-2017 00:00:00 3.82396 C 5.63 g/m*3 3.82 C 1.16285 km/h
291 07-02-2017 00:00:00 4.2184 C 5.78 g/m*3 4.22 C 1.20313 km/h
292 08-02-2017 00:00:00 2.98785 C 5.1 g/m*3 2.99 C 3.44618 km/h
293 09-02-2017 00:00:00 0.05903 C 4.09 g/m*3 0.06 C 2.36042 km/h
294 10-02-2017 00:00:00 0.67222 C 4.2 g/m*3 0.67 C 2.71701 km/h
295 11-02-2017 00:00:00 1.79896 C 5.14 g/m*3 1.8 C 1.58542 km/h
296 12-02-2017 00:00:00 2.74132 C 5.38 g/m*3 2.74 C 3.36597 km/h
297 13-02-2017 00:00:00 3.48576 C 5.1 g/m*3 2.24 C 5.32257 km/h
298 14-02-2017 00:00:00 1.66042 C 4.62 g/m*3 1.66 C 2.97535 km/h
299 15-02-2017 00:00:00 2.27639 C 5.1 g/m*3 2.28 C 1.38333 km/h
300 16-02-2017 00:00:00 4.06597 C 6.07 g/m*3 4.07 C 1.18472 km/h
Sensor: Nr:Datum:Temp:Abs-Feuchte:Windchill:Wind:
Aussen-T/F 301 17-02-2017 00:00:00 6.02222 C 6.96 g/m*3 6.02 C 2.96806 km/h
302 18-02-2017 00:00:00 5.94097 C 6.5 g/m*3 5.94 C 1.70625 km/h
303 19-02-2017 00:00:00 3.47083 C 5.61 g/m*3 3.47 C 3.00278 km/h
304 20-02-2017 00:00:00 8.45104 C 7.75 g/m*3 6.44 C 11.97813 km/h
305 21-02-2017 00:00:00 10.41458 C 8.89 g/m*3 9.59 C 7.53681 km/h
306 22-02-2017 00:00:00 11.10243 C 8.76 g/m*3 11.1 C 18.20694 km/h
307 23-02-2017 00:00:00 9.37708 C 7.43 g/m*3 6.61 C 19.84965 km/h
308 24-02-2017 00:00:00 5.21007 C 5.52 g/m*3 3.09 C 9.20625 km/h
309 25-02-2017 00:00:00 3.83993 C 5.34 g/m*3 3.84 C 4.95174 km/h
310 26-02-2017 00:00:00 8.62951 C 6.48 g/m*3 7.32 C 8.34965 km/h
311 27-02-2017 00:00:00 10.96042 C 7.31 g/m*3 9.9 C 9.25868 km/h
312 28-02-2017 00:00:00 5.79618 C 5.88 g/m*3 3.38 C 11.13576 km/h
313 01-03-2017 00:00:00 6.67257 C 6.59 g/m*3 4.48 C 10.88681 km/h
314 02-03-2017 00:00:00 8.27986 C 5.77 g/m*3 5.75 C 15.36493 km/h
315 03-03-2017 00:00:00 6.21771 C 5.65 g/m*3 6.22 C 2.29618 km/h
316 04-03-2017 00:00:00 10.95451 C 7.24 g/m*3 10.84 C 5.00243 km/h
317 05-03-2017 00:00:00 7.21354 C 6.83 g/m*3 5.91 C 7.27778 km/h
318 06-03-2017 00:00:00 6.48333 C 6.66 g/m*3 4.7 C 8.76563 km/h
319 07-03-2017 00:00:00 6.06806 C 6.71 g/m*3 6.07 C 3.06354 km/h
320 08-03-2017 00:00:00 5.01528 C 6.51 g/m*3 5.02 C 2.82014 km/h
321 09-03-2017 00:00:00 11.11146 C 8.6 g/m*3 11.11 C 7.32847 km/h
322 10-03-2017 00:00:00 7.4684 C 5.99 g/m*3 7.47 C 4.725 km/h
323 11-03-2017 00:00:00 6.7316 C 5.85 g/m*3 6.73 C 2.12813 km/h
324 12-03-2017 00:00:00 6.62813 C 5.53 g/m*3 6.63 C 3.32674 km/h
325 13-03-2017 00:00:00 6.71007 C 5.82 g/m*3 6.71 C 2.54063 km/h
Sensor: Nr:Datum:Temp:Abs-Feuchte:Windchill:Wind:
Aussen-T/F 326 14-03-2017 00:00:00 9.45625 C 7.24 g/m*3 9.46 C 2.57083 km/h
327 15-03-2017 00:00:00 10.41493 C 7.71 g/m*3 10.41 C 3.27083 km/h
328 16-03-2017 00:00:00 8.32569 C 6.68 g/m*3 8.33 C 1.23333 km/h
329 17-03-2017 00:00:00 8.68507 C 6.68 g/m*3 8.08 C 5.5809 km/h
330 18-03-2017 00:00:00 9.53889 C 8.03 g/m*3 7.51 C 13.73576 km/h
331 19-03-2017 00:00:00 12.1559 C 9.14 g/m*3 12.16 C 11.0316 km/h
332 20-03-2017 00:00:00 11.60278 C 7.72 g/m*3 11.6 C 14.36597 km/h
333 21-03-2017 00:00:00 9.375 C 7.52 g/m*3 8.6 C 6.57882 km/h
334 22-03-2017 00:00:00 5.39132 C 6.14 g/m*3 5.39 C 1.45729 km/h
335 23-03-2017 00:00:00 8.8434 C 7.15 g/m*3 8.84 C 4.19063 km/h
336 24-03-2017 00:00:00 9.49444 C 6.94 g/m*3 8.65 C 6.93194 km/h
337 25-03-2017 00:00:00 9.21424 C 5.86 g/m*3 8.39 C 6.6934 km/h
338 26-03-2017 00:00:00 9.36594 C 5.76 g/m*3 9.37 C 3.62899 km/h
339 27-03-2017 00:00:00 8.83194 C 5.65 g/m*3 8.83 C 3.46736 km/h
340 28-03-2017 00:00:00 10.73819 C 6.82 g/m*3 10.74 C 4.27882 km/h
341 29-03-2017 00:00:00 12.89063 C 8.3 g/m*3 12.89 C 7.35104 km/h
342 30-03-2017 00:00:00 14.33507 C 8.91 g/m*3 14.34 C 2.8191 km/h
343 31-03-2017 00:00:00 13.69896 C 8.18 g/m*3 13.7 C 4.2309 km/h
344 01-04-2017 00:00:00 13.59792 C 8.47 g/m*3 13.6 C 4.24132 km/h
345 02-04-2017 00:00:00 11.71736 C 7.77 g/m*3 11.72 C 4.33021 km/h
346 03-04-2017 00:00:00 10.47257 C 7.37 g/m*3 10.47 C 3.92778 km/h
347 04-04-2017 00:00:00 9.3059 C 6.62 g/m*3 9.31 C 3.32882 km/h
348 05-04-2017 00:00:00 8.78889 C 6.61 g/m*3 7.96 C 6.45451 km/h
349 06-04-2017 00:00:00 8.65278 C 6.36 g/m*3 7.49 C 7.69097 km/h
350 07-04-2017 00:00:00 11.31566 C 7.19 g/m*3 11.32 C 7.25241 km/h
Sensor: Nr:Datum:Temp:Abs-Feuchte:Windchill:Wind:
Aussen-T/F 351 08-04-2017 00:00:00 14.59887 C 7.97 g/m*3 14.6 C 4.75763 km/h
352 09-04-2017 00:00:00 12.46215 C 7.97 g/m*3 12.46 C 2.05694 km/h
353 10-04-2017 00:00:00 10.93993 C 7.53 g/m*3 10.46 C 6.38264 km/h
354 11-04-2017 00:00:00 9.67188 C 6.33 g/m*3 9.67 C 4.85278 km/h
355 12-04-2017 00:00:00 11.34167 C 6.89 g/m*3 11.34 C 9.22778 km/h
356 13-04-2017 00:00:00 11.57153 C 7.09 g/m*3 11.57 C 6.57951 km/h
357 14-04-2017 00:00:00 9.77708 C 6.35 g/m*3 9.78 C 4.1691 km/h
358 15-04-2017 00:00:00 9.0875 C 7.24 g/m*3 8.29 C 6.4809 km/h
359 16-04-2017 00:00:00 7.52083 C 6.34 g/m*3 6.9 C 5.11667 km/h
360 17-04-2017 00:00:00 6.82257 C 6.5 g/m*3 6.03 C 5.34063 km/h
361 18-04-2017 00:00:00 5.52187 C 5.69 g/m*3 3.68 C 8.26424 km/h
362 19-04-2017 00:00:00 4.23646 C 4.56 g/m*3 2.91 C 5.81875 km/h
363 20-04-2017 00:00:00 4.68715 C 4.58 g/m*3 4.69 C 3.11042 km/h
364 21-04-2017 00:00:00 7.98299 C 5.84 g/m*3 7.98 C 2.52326 km/h
365 22-04-2017 00:00:00 9.60278 C 6.63 g/m*3 8.52 C 8.09826 km/h

Maximal/Minimal-Werte vom 23.04.2016 - 22.04.2017

Sensor Min Max Avg
Temp
(Aussen-T/F)
-10.6 °C
22-01-2017  07:55:00
35.4 °C
20-07-2016  17:10:00
10.57 °C
Abs-Feuchte
(Aussen-T/F)
2.69 g/m*3
22-01-2017  00:00:00
17.68 g/m*3
24-06-2016  00:00:00
8.77 g/m*3
Windchill
(Aussen-T/F)
-7.2 C
22-01-2017  00:00:00
23.97 C
27-08-2016  00:00:00
10.3 C

Die Daten stammen von einer Davis Vantage Pro 2 Wetter-Station und werden unter Linux mit der Software wview2wettercgi und aufbereitet. Alle Angaben erfolgen ohne Gewähr für ihre Vollständigkeit oder Richtigkeit.
Kontakt: Rainer Krienke krienke@uni-koblenz.de . Meine Webseiten an der Uni Koblenz oder privat.
Version: $Revision: 0.78 $